Other Public Products
Issued by NWS Grand Forks, ND

Home | Current Version | Previous Version | Text Only | Print | Product List | Glossary Off
Versions: 1 2 3 4 5 6 7 8 9 10 11 12 13 14 15 16 17 18 19 20 21 22 23 24 25 26 27 28 29 30 31 32 33 34 35 36 37 38 39 40 41 42 43 44 45 46 47 48 49 50

000
FPUS83 KFGF 222210
OPUFGF
PRAIRIE TO PINES WEATHER ROUNDUP
NATIONAL WEATHER SERVICE EASTERN NORTH DAKOTA/GRAND FORKS ND
500 PM CDT SUN APR 22 2018

 **SATELLITE DATA USED TO AUGMENT SKY COVER AT AUTOMATED STATIONS**
 *****  WEATHER ACROSS EASTERN NORTH DAKOTA  *****

CITY           SKY/WX    TMP DP  RH WIND       PRES   REMARKS
GRAND FORKS    FAIR      61  46  57 S18G28    30.13F
GRND FORKS AFB PTSUNNY   63  45  52 S20       30.12F
GRND FORKS NWS   N/A     61  45  54 SW28      30.11F
BUXTON           N/A     63  45  51 SW17        N/A
DEVILS LAKE    CLOUDY    60  41  49 W7        30.11S
FARGO          FAIR      66  41  40 S18G29    30.15F
WAHPETON ARPT  FAIR      63  34  34 S13G22    30.19F
$$

 *****  WEATHER ACROSS CENTRAL AND WESTERN NORTH DAKOTA  *****

CITY           SKY/WX    TMP DP  RH WIND       PRES   REMARKS
JAMESTOWN      FAIR      65  39  38 SW17      30.11F
BISMARCK       FAIR      69  40  34 SW8       30.07F
MINOT          PTSUNNY   62  29  28 W6        30.09F
MINOT AFB      NOT AVBL
GARRISON         N/A     61  34  36 NW5       30.09F
WILLISTON      FAIR      67  24  19 SW14      30.08F
DICKINSON      CLOUDY    67  21  17 MISG      30.07F
HETTINGER      FAIR      68  33  27 VRB7      30.08F
$$

 *****  OTHER OBSERVATIONS NORTHEAST NORTH DAKOTA  *****

CITY           SKY/WX    TMP DP  RH WIND       PRES   REMARKS
WALHALLA       FAIR      63  37  39 W13       30.09S
LANGDON        NOT AVBL
CAVALIER         N/A     61  43  51 SW9       30.09F
GRAFTON        NOT AVBL
CANDO          CLOUDY    63  36  36 CALM      30.11F
FORT TOTTEN      N/A     63  41  44 NW6       29.95S
ROLLA          FAIR      59  32  36 W10       30.09F
RUGBY          NOT AVBL
 ***** THE ABOVE OBSERVATIONS ARE NON NWS ARE NOT QUALITY
        CONTROLLED AND MAY MIS-REPORT RAIN FOR SNOW...
$$

 *****  OTHER OBSERVATIONS SOUTHEAST NORTH DAKOTA *****

CITY           SKY/WX    TMP DP  RH WIND       PRES   REMARKS
COOPERSTOWN    FAIR      61  46  59 S17G25    30.13F
VALLEY CITY    NOT AVBL
OAKES            N/A     63  36  36 S21       30.16F
GWINNER          N/A     64  39  39 S16G24    30.16F
SHEYENNE NWR     N/A     66  37  34 SW14      29.95S
BUFFALO          N/A     62  34  34 E20         N/A
WYNDMERE       NOT AVBL
 ***** THE ABOVE OBSERVATIONS ARE NON NWS ARE NOT QUALITY
       CONTROLLED AND MAY MIS-REPORT RAIN FOR SNOW...
$$

  *****  WEATHER ACROSS NORTHERN MINNESOTA  *****

CITY           SKY/WX    TMP DP  RH WIND       PRES   REMARKS
FLAG ISLAND    FAIR      55  34  44 SW23G30   30.09F
WARROAD        FAIR      61  43  51 SW18G26   30.13S
ROSEAU         FAIR      59  45  58 SW15G25   30.13F
HALLOCK        FAIR      63  39  42 SW17G23   30.09F
THF RVR FALLS  CLOUDY    61  43  51 SW21G26   30.15F
HALSTAD        NOT AVBL
FOSSTON        FAIR      63  39  42 SW21      30.18F
BAUDETTE       FAIR      64  34  32 SW15G25   30.12F
WASKISH        CLOUDY    57  32  38 W6        30.16F
CROOKSTON      FAIR      63  45  51 SW20      30.16S
$$
  *****  WEATHER ACROSS CENTRAL AND WEST MINNESOTA  *****

CITY           SKY/WX    TMP DP  RH WIND       PRES   REMARKS
BEMIDJI        FAIR      63  32  32 S10G17    30.17F
PARK RAPIDS    FAIR      63  34  33 SW15      30.20F
WADENA         FAIR      61  36  39 S12G17    30.21F
DETROIT LAKES  FAIR      61  32  33 SW15      30.21S
MOORHEAD       FAIR      64  39  39 S14G23    30.18F
FERGUS FALLS   FAIR      63  39  42 S16       30.18F
ELBOW LAKE     FAIR      61  37  40 SW13G18   30.23S
MORRIS MN      FAIR      61  39  44 S15       30.22F
STAPLES        FAIR      63  30  29 SW9       30.22F
WHEATON        FAIR      61  36  39 S14G22    30.23S
$$
  *****  WEATHER ELSEWHERE ACROSS MINNESOTA  *****

CITY           SKY/WX    TMP DP  RH WIND       PRES   REMARKS
DULUTH         FAIR      60  31  33 SW10      30.23F
INTRNTL FALLS  FAIR      63  29  27 SW12G21   30.15F
ELY            FAIR      61  27  27 S9G21     30.19F
CLOQUET        FAIR      61  25  25 SW9       30.24F
BRAINERD       FAIR      63  31  30 S12       30.23F
HIBBING        FAIR      60  27  28 S9        30.20F
ALEXANDRIA     FAIR      63  35  35 S14       30.24F
SAINT CLOUD    FAIR      62  35  36 SW8       30.24F
MINNEAPOLIS    FAIR      62  35  36 VRB6      30.25F
$$

  *****  WEATHER ACROSS SOUTH DAKOTA  *****

CITY           SKY/WX    TMP DP  RH WIND       PRES   REMARKS
SIOUX FALLS    FAIR      63  35  35 SE14G21   30.20F
BROOKINGS      FAIR      58  37  45 SE18      30.22
WATERTOWN      FAIR      58  40  51 S15G21    30.20F
HURON            N/A     62  36  37 S14G22    30.18F
SISSETON         N/A     62  38  40 S17       30.19F
ABERDEEN       FAIR      65  33  30 S21       30.17F
MITCHELL       FAIR      62  38  40 S16G22    30.18F
PIERRE         FAIR      64  39  39 S16G30    30.12F
MOBRIDGE       FAIR      66  40  38 S15G24    30.09F
RAPID CITY     FAIR      65  38  36 E6        30.07F
$$

  *****  SOME WEATHER IN NEARBY STATES *****

CITY           SKY/WX    TMP DP  RH WIND       PRES   REMARKS
GLASGOW MT     FAIR      63  24  22 NW6       30.08F
GREAT FALLS MT FAIR      57  14  18 NW13G20   30.11S
CHEYENNE WY    FAIR      63  29  27 NE10      30.12F
SCOTTSBLUFF NE FAIR      62  41  46 MISG      30.10F
OMAHA NE       PTSUNNY   69  32  25 E8        30.14F
DES MOINES IA  PTSUNNY   70  28  21 E10G21    30.15F
DAVENPORT IA   FAIR      64  27  24 E16       30.21S
CHICAGO IL     PTSUNNY   60  26  27 NE14      30.25F
EAU CLAIRE WI  FAIR      65  31  28 SE8       30.26F
LA CROSSE WI   FAIR      65  29  25 E7        30.26F
$$

  *****  SOME NATIONAL WEATHER *****

CITY           SKY/WX    TMP DP  RH WIND       PRES   REMARKS
LA GUARDIA NY  FAIR      59  21  23 S15       30.32S
RALEIGH NC     CLOUDY    68  41  37 S8        30.29S
ATLANTA GA     LGT RAIN  60  59  96 E16G26    30.07F
NEW ORLEANS LA FAIR      80  63  55 W17G26    29.84F
OKLAHOMA CITY  PTSUNNY   62  44  51 N20G26    30.02F
ALBUQUERQUE NM FAIR      74  14  10 CALM      30.06F
SALT LAKE CITY PTSUNNY   75  27  17 VRB3      29.99F
LOS ANGELES CA FAIR      70  53  54 W13       29.92F
BOISE ID       FAIR      64  30  27 NW20G26   30.03F
SEATTLE WA     FAIR      56  39  53 NW12G17   30.35F
$$

*** WEATHER ACROSS MANITOBA...SASKATCHEWAN AND ONTARIO ***
                ***ONTARIO***

CITY           SKY/WX    TMP DP  RH WIND       PRES   REMARKS
GERALDTON      PTSUNNY   54  16  22 SW15G26   30.22F
THUNDER BAY    MOSUNNY   61  25  25 S16       30.22F
SIOUX LOOKOUT  PTSUNNY   57  30  35 SW13G26   30.10F
TORONTO        MOSUNNY   57  16  19 SE9       30.36S
BIG TROUT LK   CLOUDY    48  32  53 S13G22    29.88F
PICKLE LAKE    PTSUNNY   57  23  26 SW18G32   30.03F
DRYDEN         SUNNY     61  30  31 SW17G31   30.09F
KENORA         PTSUNNY   57  32  38 SW17G24   30.08F
$$
                *** MANITOBA***

CITY           SKY/WX    TMP DP  RH WIND       PRES   REMARKS
BRANDON        PTSUNNY   63  34  34 W17G25    30.03F
DAUPHIN        SUNNY     61  30  31 W29G45    29.96R
ISLAND LAKE    CLOUDY    54  36  50 SW13G22   29.76F
PILOT MOUND      N/A     61  30  31 SW12        N/A
THE PAS        CLOUDY    48  34  57 W22G31    29.69R
THOMPSON       LGT RAIN  41  39  93 SW17G29   29.50R
WINNIPEG       PTSUNNY   64  37  36 SW18G25   30.04F
LYNN LAKE      LGT SNOW  34  34 100 N9G17     29.54R
CHURCHILL      LGTSLEET  27  27 100 E29G38    29.75F BLWGSNOWWCI  11
GILLAM         LGT RAIN  46  37  71 S17G29    29.60F
$$
                ***SASKATCHEWAN***

CITY           SKY/WX    TMP DP  RH WIND       PRES   REMARKS
ESTEVAN        MOSUNNY   63  25  23 W16       30.06F
KINDERSLEY     MOSUNNY   50  30  46 NW22G29   30.07R
LLOYDMINSTER   PTSUNNY   45  34  65 NW22G30   30.03S
PRINCE ALBERT  PTSUNNY   48  36  61 W22G29    29.90R
REGINA         MOSUNNY   59  27  29 W29G36    30.05S
YORKTON        SUNNY     57  27  30 W28G39    29.96F



USA.gov is the U.S. government's official web portal to all federal, state and local government web resources and services.